Weather Roundup
Issued by NWS Springfield, MO

Home | Current Version | Previous Version | Text Only | Print | Product List | Glossary On
Versions: 1 2 3 4 5 6 7 8 9 10 11 12 13 14 15 16 17 18 19 20 21 22 23 24 25 26 27 28 29 30 31 32 33 34 35 36 37 38 39 40 41 42 43 44 45 46 47 48 49 50
280
NZUS99 KSGF 261007
HRRSGF

HOURLY WEATHER
NATIONAL WEATHER SERVICE SPRINGFIELD MO
500 AM CDT FRI MAY 26 2017

......SGF CWA......

CITY           SKY/WX    TMP DP  RH WIND       PRES   REMARKS
SPRINGFIELD    LGT RAIN  68  59  73 SE10      29.71R
JOPLIN         PTCLDY    67  61  81 E8        29.66F
WEST PLAINS    CLEAR     63  58  83 SE7       29.80F
ROLLA          CLEAR     62  57  83 S10       29.74F
OSAGE BEACH    CLOUDY    63  57  81 SE6       29.73F
BRANSON        CLOUDY    63  59  88 SE10      29.73S

......SURROUNDING SGF CWA......

CITY           SKY/WX    TMP DP  RH WIND       PRES   REMARKS
CHANUTE        PTCLDY    66  58  75 E10       29.62S
PARSONS        MOCLDY    68  60  75 E5        29.61F
COFFEYVILLE    MOCLDY    66  65  96 E10       29.59F
EMPORIA        MOCLDY    64  60  87 SE8       29.60R
GROVE OK       MOCLDY    70  63  78 N6G16     29.68R
ROGERS AR      PTCLDY    66  61  84 SE8       29.67R
SILOAM SPRINGS CLOUDY    72  57  60 S15G24    29.64S
HARRISON AR    CLOUDY    63  59  87 E5        29.72R
NEAR YELLVILLE CLOUDY    64  55  72 E5        29.72R

......KANSAS AND MISSOURI......

CITY           SKY/WX    TMP DP  RH WIND       PRES   REMARKS
KANSAS CTY INT CLOUDY    64  60  87 S17G28    29.57R
DOWNTOWN KC    MOCLDY    67  60  78 S20G28    29.57R
COLUMBIA       CLOUDY    61  56  83 S9        29.72F
SEDALIA        CLOUDY    64  59  83 S6        29.74R THUNDER
ST JOSEPH      MOCLDY    62  59  90 NW5       29.62R
ST LOUIS       PTCLDY    63  54  72 SE6       29.77F
SPIRIT OF STL  PTCLDY    60  55  83 CALM      29.75F
KIRKSVILLE     MOCLDY    61  55  81 S8        29.71F
WICHITA        PTCLDY    65  61  87 E8        29.59R
TOPEKA         CLEAR     62  61  96 N6        29.61R
OLATHE         CLOUDY    63  61  93 S18       29.58F

......TENNESSEE......

CITY           SKY/WX    TMP DP  RH WIND       PRES   REMARKS
MEMPHIS        PTCLDY    65  58  78 S10       29.86R
NASHVILLE      CLEAR     54  51  90 S5        29.94S

......ARKANSAS.......

CITY           SKY/WX    TMP DP  RH WIND       PRES   REMARKS
FAYETTEVILLE   CLOUDY    70  62  76 S16       29.66S
FT SMITH       CLOUDY    67  60  78 NE6       29.67S
LITTLE ROCK    PTCLDY    67  64  90 S16       29.79S

......OKLAHOMA.......

CITY           SKY/WX    TMP DP  RH WIND       PRES   REMARKS
TULSA          MOCLDY    70  62  76 SE12      29.57R
PONCA CITY     CLOUDY    68  61  78 SE13      29.53S
MCALESTER      PTCLDY    73  61  65 S13G26    29.64R
OKLAHOMA CITY  PTCLDY    73  61  65 SW15      29.56R

......IOWA............

CITY           SKY/WX    TMP DP  RH WIND       PRES   REMARKS
DES MOINES     CLOUDY    61  53  75 E8        29.67F
QUAD CITIES    MOCLDY    58  54  86 NE8       29.77F

......ILLINOIS........

CITY           SKY/WX    TMP DP  RH WIND       PRES   REMARKS
QUINCY         CLOUDY    62  52  69 SE8       29.74S
CHICAGO        CLOUDY    54  50  86 CALM      29.82R




USA.gov is the U.S. government's official web portal to all federal, state and local government web resources and services.